RORVIK / RYUM current weather conditions

sailwx.info

Wind from 210 at 7 knots

Air temperature 23.0° C
Dewpoint 15.0° C

Last reported at 2014-Jul-22 13:20 UTC.
Time now 2014-Jul-22 15:26 UTC

Location: N 64°50' E 011°09'.
View on Google Maps.

See reports from other nearby stations

  
Tides and Currents Weather Stations Pressure Air Temp Water Temp Dewpoint Dewpoint Depression Visibility Wind Speed Wind Dir Waves Ship Positions
date/time (UTC)wind fromknots sea level pressurealtimeterstation pressurevisibilityair tempwater tempwave heightnotes
2014-Jul-22 14:20 250 6 25.0
2014-Jul-22 13:20 210 7 23.0
2014-Jul-22 11:50 200 7 23.0
2014-Jul-22 10:50 210 7 22.0
2014-Jul-22 10:20 210 7 22.0
2014-Jul-22 09:50 210 5 22.0
2014-Jul-22 09:20 220 6 22.0
2014-Jul-22 08:50 230 8 21.0
2014-Jul-22 08:20 220 8 21.0
2014-Jul-22 07:50 220 8 20.0
2014-Jul-22 07:20 220 6 21.0
2014-Jul-22 06:50 210 5 19.0
2014-Jul-22 06:20 200 5 19.0
2014-Jul-22 05:20 210 6 19.0
2014-Jul-22 04:50 220 4 19.0
2014-Jul-22 04:20 19.0
2014-Jul-22 03:50 18.0
2014-Jul-21 20:20 22.0
2014-Jul-21 19:50 040 4 23.0
2014-Jul-21 19:20 030 67 24.0
2014-Jul-21 18:50 030 7 25.0
2014-Jul-21 18:20 020 7 25.0
2014-Jul-21 17:50 030 8 26.0
2014-Jul-21 16:50 030 9 26.0
2014-Jul-21 15:50 020 11 27.0
2014-Jul-21 15:20 020 9 28.0
2014-Jul-21 14:50 010 10 28.0
2014-Jul-21 14:20 30.0
2014-Jul-21 13:50 230 4 30.0
2014-Jul-21 12:20 200 5 29.0
2014-Jul-21 11:50 230 6 29.0
2014-Jul-21 11:20 170 5 29.0
2014-Jul-21 10:50 160 5 28.0
2014-Jul-21 10:20 150 6 28.0
2014-Jul-21 09:50 150 7 28.0
2014-Jul-21 09:20 140 7 27.0
2014-Jul-21 08:50 140 7 27.0
2014-Jul-21 08:20 150 8 26.0
2014-Jul-21 07:50 110 6 26.0
2014-Jul-21 07:20 120 5 25.0
2014-Jul-21 06:50 080 5 25.0
2014-Jul-21 06:20 070 4 24.0
2014-Jul-21 05:20 070 5 23.0
2014-Jul-21 04:50 100 6 22.0
2014-Jul-21 04:20 100 7 22.0
2014-Jul-20 17:50 030 9 25.0
2014-Jul-20 16:50 030 9 26.0
2014-Jul-20 15:50 030 8 26.0
2014-Jul-20 15:20 28.0